Theta_e
309 309 309 309 309 309 309 310 310 311 311 312 312 313 314 315 316 317 318 315 313 312 312 312 313 314 317 319 316 316 318 319 320 320 320 318 317 317 318 317 316 315 315 315 314
310 310 309 309 309 309 309 310 310 311 312 312 313 314 316 317 318 318 318 316 314 313 312 314 316 316 318 319 319 319 320 319 318 318 319 318 318 318 317 317 315 314 313 313 313
310 310 310 310 309 309 309 310 310 311 312 312 313 315 317 318 319 319 315 313 313 313 312 313 315 316 317 318 319 319 318 316 317 318 319 318 318 318 318 317 317 316 314 312 312
310 310 310 310 310 309 309 309 310 311 312 312 314 316 318 319 321 317 312 311 312 312 312 313 316 316 317 318 318 318 317 317 318 317 318 318 319 318 317 315 315 315 314 312 312
310 310 310 310 310 310 309 309 310 311 311 312 313 316 319 319 320 319 316 312 311 311 315 316 316 316 317 318 318 318 318 317 318 317 317 317 318 318 317 316 314 313 312 311 311
310 310 310 310 310 310 309 309 309 310 311 312 313 317 319 320 319 318 317 317 312 312 314 315 315 316 316 317 317 317 318 317 317 317 317 316 317 317 317 315 313 311 311 311 311
310 310 310 310 310 310 310 309 309 309 311 312 314 317 318 319 319 319 318 317 316 312 315 314 314 315 317 317 316 316 316 316 316 316 316 316 315 315 315 314 312 311 310 310 310
308 309 309 309 309 310 310 309 308 309 310 311 314 318 318 319 319 318 318 317 315 313 314 314 312 316 316 316 316 316 317 318 319 316 315 315 317 317 314 313 311 311 309 309 309
309 308 308 309 309 310 310 309 308 309 310 311 314 318 319 318 318 318 317 316 315 314 313 312 313 316 315 315 317 317 317 318 318 316 314 313 318 314 313 312 312 311 310 309 309
310 309 309 308 309 310 310 309 308 308 310 312 315 316 317 316 317 317 317 315 314 313 313 314 315 315 315 315 318 320 319 319 320 315 315 314 313 313 312 312 313 312 311 309 308
320 313 307 310 310 310 309 308 310 317 313 312 319 318 317 317 316 315 315 314 314 315 316 315 315 316 316 316 317 318 318 318 320 314 316 315 315 316 313 312 313 313 312 310 308
325 323 315 307 310 310 308 309 315 317 318 318 316 318 318 316 313 314 315 314 315 316 316 315 316 317 318 318 318 317 317 317 318 314 314 315 315 316 313 312 312 313 313 310 307
324 322 321 311 311 311 309 309 310 314 319 315 316 317 318 317 315 314 314 314 315 316 316 317 318 317 317 317 318 317 317 317 318 315 314 313 313 315 316 315 313 313 314 311 308
322 322 322 316 313 314 311 308 309 314 318 315 320 320 318 317 315 316 315 315 315 316 316 317 317 316 317 317 316 317 317 316 317 316 317 314 318 318 317 316 312 313 314 311 307
322 322 322 322 317 314 313 308 312 316 316 318 318 317 316 316 314 312 314 313 314 313 316 317 314 314 316 316 316 317 315 316 316 316 317 317 318 318 317 318 315 312 311 310 307
322 322 321 320 317 317 313 312 318 320 319 319 314 315 314 315 312 309 311 311 312 315 314 315 313 314 315 312 314 313 315 315 315 316 318 318 319 319 319 318 316 312 310 309 306
319 320 321 320 317 317 314 317 317 317 314 316 316 316 316 316 313 311 311 311 314 315 315 314 313 313 313 313 312 315 316 320 319 317 319 316 319 319 317 315 315 312 310 308 305
317 318 318 319 318 317 317 316 317 315 314 317 317 316 318 316 315 312 311 312 311 314 316 317 319 314 312 315 315 313 317 320 323 322 320 311 315 317 313 310 312 313 309 307 304
311 316 317 318 319 317 319 317 315 315 314 315 316 318 318 316 314 313 313 314 314 313 317 319 320 314 312 313 316 315 316 317 317 308 313 317 314 313 309 308 308 309 307 305 303
312 313 316 317 318 317 319 316 315 315 316 314 317 318 320 317 315 314 314 315 316 313 315 320 322 315 309 311 312 314 314 316 315 316 319 320 319 319 311 309 306 307 306 304 302
312 312 313 316 318 317 319 315 315 315 315 316 317 316 317 319 315 314 317 317 315 315 314 317 319 313 310 311 314 312 313 314 316 316 319 319 320 315 314 311 307 307 306 304 302
311 313 313 316 317 317 318 316 315 315 317 318 318 317 319 317 317 316 316 318 317 316 315 316 318 315 312 311 311 314 314 314 316 317 315 315 320 311 311 310 308 307 306 304 303
310 311 312 316 319 319 316 316 316 316 317 318 319 318 318 319 318 317 317 316 317 315 315 315 317 318 317 312 310 311 311 314 315 313 318 317 319 307 307 309 309 307 306 304 303
307 312 311 314 317 317 318 316 317 316 316 318 319 318 318 319 318 318 317 316 315 315 315 316 317 318 322 320 315 312 311 312 314 315 315 317 317 310 308 308 308 308 306 305 303
306 309 311 314 314 316 317 317 317 318 315 316 318 319 320 320 320 320 317 313 311 313 314 315 318 317 318 318 317 313 312 312 313 314 316 317 316 316 311 307 308 309 307 305 303
305 307 308 310 312 313 314 315 316 316 317 316 317 317 318 320 319 320 318 316 314 309 310 311 316 316 318 316 317 318 317 312 311 312 314 314 315 314 315 311 308 308 307 305 304
304 305 306 308 309 311 310 312 313 314 315 316 316 317 318 318 318 318 318 318 316 312 309 311 313 315 319 315 316 318 317 317 316 312 313 313 314 312 311 307 308 307 307 306 305
Wind_Speed
4 3 2 1 1 1 2 2 3 3 4 5 6 6 7 7 8 6 3 5 5 4 3 1 2 3 5 4 2 1 2 3 2 1 6 13 5 2 3 8 5 2 2 7 6
5 4 3 3 3 3 3 3 3 4 4 5 7 7 7 8 8 5 7 6 6 5 3 1 1 2 2 1 1 2 2 7 8 9 5 11 8 11 4 10 4 4 3 4 4
7 6 5 5 5 5 5 5 5 5 6 6 7 8 8 9 6 3 4 4 4 5 5 4 3 1 2 1 1 1 2 5 7 8 9 8 2 4 4 5 7 13 7 6 6
10 9 8 7 7 7 7 7 6 7 7 8 8 8 8 7 3 4 2 1 2 4 5 3 2 3 2 3 2 3 2 5 4 1 3 5 3 3 7 5 8 13 10 8 6
14 12 11 10 9 9 9 9 8 8 8 8 9 8 6 4 5 6 3 1 2 5 6 2 3 3 4 3 0 4 4 1 2 2 2 1 3 6 6 9 8 9 9 9 7
17 16 14 13 12 11 10 10 11 10 10 9 9 8 6 6 6 7 6 5 5 5 3 3 2 2 6 2 1 5 3 5 5 6 4 3 6 5 6 14 9 8 9 9 7
19 19 17 15 14 13 13 12 12 11 11 10 9 9 9 10 9 6 7 7 7 9 4 8 4 1 2 2 1 1 4 7 12 9 2 5 7 9 13 13 11 11 11 9 7
21 20 20 18 17 16 15 14 13 12 12 11 10 8 7 10 14 11 12 8 8 9 9 7 5 3 1 0 2 3 3 3 3 16 5 6 7 4 19 16 15 14 11 10 8
21 22 21 20 19 18 17 16 14 13 12 11 8 5 7 8 11 14 10 6 9 8 8 5 5 2 2 3 4 5 5 7 4 13 6 8 5 6 11 15 16 16 14 12 11
19 20 22 21 20 18 18 16 15 14 14 12 12 6 14 6 9 10 12 11 5 7 4 5 5 3 3 5 5 6 5 6 6 8 6 7 11 6 15 18 19 18 17 15 12
19 18 19 21 21 19 16 12 8 6 11 11 3 5 5 9 7 8 12 12 7 6 6 9 4 7 12 11 11 9 7 8 4 4 5 9 10 10 23 22 21 23 22 19 17
24 19 18 18 20 18 14 7 7 3 8 14 20 18 16 9 5 11 16 11 9 7 12 3 9 12 9 9 6 9 9 9 8 7 3 7 11 9 17 23 32 30 27 24 22
26 19 19 14 14 17 16 13 13 7 6 13 24 25 23 24 12 17 23 13 8 8 10 11 3 5 13 5 5 7 8 7 8 4 4 6 8 13 11 25 28 29 28 26 28
33 29 19 11 12 17 19 17 12 3 4 7 11 13 23 16 10 16 25 11 7 11 8 10 16 3 6 8 8 8 7 11 7 3 4 6 5 7 9 13 18 28 28 30 27
32 30 30 30 11 17 14 14 13 7 5 2 11 12 17 17 18 9 25 12 9 8 7 5 7 9 7 6 8 4 5 0 3 6 5 5 7 6 13 16 16 23 29 26 27
29 29 29 27 26 14 14 17 17 4 12 4 6 7 8 16 3 6 10 5 4 5 5 4 1 4 5 4 1 9 5 2 1 1 6 13 13 6 12 16 9 19 29 30 30
25 29 32 35 38 22 19 31 6 8 5 10 7 8 9 8 5 6 10 10 9 7 10 6 9 4 5 5 4 5 6 2 2 1 7 1 10 16 5 3 6 20 30 35 34
26 24 26 38 33 27 33 12 7 20 27 8 6 9 10 8 7 8 10 9 14 10 4 11 6 17 9 12 7 9 9 5 7 5 4 3 7 6 0 7 3 24 32 35 37
22 29 27 36 36 38 29 12 14 15 16 17 8 5 9 6 7 8 10 10 13 20 14 6 7 6 6 5 7 5 8 10 4 1 2 6 7 8 5 3 2 20 29 32 36
18 25 31 29 38 46 20 17 14 25 6 30 21 12 14 13 9 14 14 8 10 23 14 2 3 1 3 5 4 4 4 4 2 3 6 5 10 10 6 11 8 14 26 31 35
16 10 18 27 35 29 14 13 21 22 28 19 17 23 16 11 14 10 10 5 19 15 25 4 2 2 6 8 12 4 4 5 4 5 4 5 7 4 14 15 18 17 28 34 38
16 5 15 23 17 6 16 26 17 17 18 17 12 24 19 18 14 16 14 8 24 21 19 11 1 5 9 4 0 5 8 9 5 6 6 2 20 4 6 10 19 24 30 35 40
8 17 20 30 12 14 6 25 25 16 17 14 15 17 16 18 18 20 11 9 25 17 18 12 5 0 4 2 2 6 8 16 13 1 21 5 15 3 5 5 18 23 29 35 37
8 4 17 26 21 15 20 23 21 30 22 31 17 16 8 14 20 6 15 6 29 20 19 21 5 11 17 6 8 7 11 18 18 11 6 25 19 3 5 5 9 23 31 33 36
9 7 7 4 13 19 17 8 21 17 32 29 22 20 20 11 20 24 9 2 4 14 12 12 11 11 21 18 6 6 10 20 24 28 16 27 24 20 10 12 22 26 28 31 35
7 8 7 7 17 9 14 12 15 19 15 29 25 28 28 22 23 19 14 16 7 5 8 1 8 12 22 12 15 19 14 18 22 24 27 30 34 4 21 27 18 27 30 30 36
20 23 12 6 5 6 5 4 5 11 24 34 30 26 28 35 40 34 21 14 7 12 10 7 3 5 19 8 13 11 35 23 24 25 23 25 36 11 11 9 21 26 29 30 32
Wind_Direction
181 185 195 220 251 295 316 327 327 326 333 335 338 336 333 329 327 323 318 273 278 250 246 236 10 2 37 335 355 330 307 253 241 254 122 138 147 146 131 120 109 65 118 145 174
214 225 236 256 273 287 296 298 303 312 322 327 329 331 334 333 327 311 288 281 256 246 211 106 351 318 223 275 334 287 300 1 4 40 89 155 205 153 175 137 128 113 110 113 138
228 238 254 265 272 278 284 292 299 303 312 321 323 329 337 340 342 244 303 279 246 214 209 189 166 169 251 310 121 0 311 358 40 45 19 124 227 121 220 203 70 172 168 141 135
239 242 248 259 274 282 285 288 293 299 308 314 320 326 332 339 335 339 332 2 173 178 158 137 141 233 273 208 109 296 74 3 64 66 32 130 123 176 236 135 156 146 172 155 172
250 251 255 259 266 277 285 289 290 294 300 308 314 321 333 331 264 292 283 236 142 145 113 121 243 305 266 64 316 229 126 114 137 189 219 310 246 237 162 200 196 176 170 179 190
254 255 256 261 266 272 278 284 289 292 295 301 307 315 317 262 264 275 262 241 205 179 195 149 334 276 306 338 275 13 354 248 189 208 221 227 256 230 212 201 193 172 185 197 199
254 257 259 262 266 270 274 278 284 289 294 299 306 311 292 262 265 275 259 241 224 195 207 219 215 161 359 193 211 323 293 224 223 211 259 200 275 231 190 189 188 180 197 199 199
254 254 257 260 264 269 273 276 280 285 291 295 302 309 266 265 259 259 242 233 223 219 204 228 208 191 191 123 210 237 196 240 309 171 175 171 267 255 177 179 181 188 199 204 210
257 257 255 255 260 266 271 276 279 283 286 289 296 290 259 248 246 244 219 218 214 220 224 214 177 214 169 225 256 193 256 218 161 174 129 189 276 156 176 182 185 187 199 207 219
260 255 256 255 256 262 270 276 280 283 278 279 260 277 242 226 234 232 212 190 172 184 162 172 190 205 208 198 217 217 213 242 245 201 185 192 256 183 190 198 198 195 201 212 223
270 259 251 253 254 256 262 275 288 281 234 212 220 191 200 224 222 208 190 177 147 175 189 196 206 206 212 217 248 290 303 297 287 143 190 223 244 230 194 205 216 202 201 207 208
258 265 255 245 250 249 245 213 243 267 299 261 247 247 242 227 190 197 175 170 187 200 210 106 234 237 234 244 249 239 262 265 286 128 191 267 265 263 184 206 208 210 200 198 200
245 254 264 242 239 242 236 225 235 258 261 264 241 233 218 220 209 206 183 191 191 210 202 207 191 226 229 225 230 244 238 250 244 153 224 293 272 254 251 221 209 215 209 200 206
244 246 246 242 232 238 237 228 220 222 270 234 198 227 199 201 226 217 202 175 189 212 220 234 246 202 211 212 188 247 221 230 258 310 240 148 280 260 269 241 197 204 200 192 193
254 231 233 243 232 216 243 224 176 150 283 6 145 166 177 175 146 163 189 201 188 188 183 210 166 163 198 189 192 217 30 107 235 249 300 266 272 252 223 252 217 194 190 190 193
245 242 225 224 214 208 206 168 153 176 237 166 125 147 148 216 91 115 173 163 215 220 246 244 351 202 198 64 23 129 90 90 33 205 254 228 226 225 238 229 218 185 188 190 186
247 248 235 230 216 197 192 153 161 217 189 197 164 164 198 171 135 165 174 184 176 176 207 209 217 174 154 104 17 170 135 252 293 232 242 284 225 245 251 315 202 182 182 185 187
249 247 249 231 229 208 182 157 201 225 225 86 120 155 183 143 177 190 168 195 229 229 161 197 222 175 191 208 161 188 182 162 234 213 265 332 237 243 306 62 190 183 177 180 184
256 250 244 238 243 205 185 198 196 223 202 240 123 171 196 174 139 167 203 216 197 203 194 192 227 101 135 192 159 181 213 227 352 58 334 218 261 283 166 158 132 155 167 177 182
259 253 251 232 233 202 204 202 232 217 291 203 214 182 180 175 182 186 182 209 220 195 214 269 213 3 62 76 317 197 161 102 195 237 246 247 248 242 225 220 190 186 180 179 181
259 237 259 235 227 203 216 216 231 230 220 244 238 228 227 176 188 197 214 225 192 177 194 176 163 114 122 204 178 134 214 220 168 188 225 279 257 302 201 197 194 194 187 184 184
245 233 235 205 202 212 220 222 224 227 244 243 255 245 247 220 194 197 216 199 182 157 188 184 165 173 207 123 130 223 184 192 170 225 235 217 258 12 7 186 179 187 187 188 195
244 249 243 205 221 220 228 237 238 221 219 237 240 238 238 226 230 206 206 225 179 170 171 166 184 158 313 93 18 199 200 207 218 69 233 198 256 333 11 77 176 175 185 190 193
245 243 218 225 237 232 225 232 233 227 239 221 229 248 232 237 234 214 212 193 178 184 189 160 159 196 228 222 144 194 202 209 203 227 201 233 247 220 218 194 181 189 192 191 193
225 240 241 211 225 231 242 237 230 226 217 215 229 217 227 230 240 237 193 67 19 181 176 178 212 221 241 238 231 189 198 206 210 224 213 251 242 240 223 202 210 200 188 185 191
224 230 227 281 238 253 238 214 232 230 218 220 223 218 220 225 227 219 218 212 188 174 170 290 234 212 246 225 239 252 240 211 222 231 239 251 255 203 239 212 179 187 184 187 192
238 241 259 213 228 234 186 205 252 254 240 232 224 226 222 223 225 231 235 241 207 174 176 147 136 165 246 209 242 250 235 231 228 226 222 238 249 212 232 184 187 187 186 194 202